Waarnemingen

Advertentie
Mijn weer
Elsenborn, België (6496): temperatuur & dauwpunt: 22.03.2020 21:00:00 - 28.03.2020 21:00:00 (CET)Elsenborn, België (6496): windsnelheid & windstoten: 22.03.2020 21:00:00 - 28.03.2020 21:00:00 (CET)Elsenborn, België (6496): windrichting: 22.03.2020 21:00:00 - 28.03.2020 21:00:00 (CET)Elsenborn, België (6496): luchtdruk: 22.03.2020 21:00:00 - 28.03.2020 21:00:00 (CET)Elsenborn, België (6496): zicht: 22.03.2020 21:00:00 - 28.03.2020 21:00:00 (CET)
Datum & Tijd tt [°C] td [°C] ff [km/u] ff [kn] fx [km/u] fx [kn] dd ppp [hPa] vv [km]
28.03.2020 21:00:00 4,0 0,5 18 10 36 19 NNO 1024,2 20
28.03.2020 20:00:00 5,6 -1,3 14 8 40 21 N 1023,2 20
28.03.2020 19:00:00 6,6 -0,3 18 10 - - N 1022,2 16
28.03.2020 18:00:00 8,3 -1,8 18 10 36 19 NNO 1021,3 19
28.03.2020 17:00:00 9,7 -2,6 22 12 36 19 NO 1020,7 20
28.03.2020 16:00:00 10,8 -2,8 22 12 - - NO 1020,5 18
28.03.2020 15:00:00 12,1 0,7 22 12 32 18 NO 1020,0 13
28.03.2020 14:00:00 12,7 1,9 18 10 32 18 NO 1019,8 12
28.03.2020 13:00:00 12,5 0,8 22 12 - - NO 1020,2 16
28.03.2020 12:00:00 12,0 0,7 25 14 32 18 NO 1020,2 14
28.03.2020 11:00:00 11,0 0,5 18 10 32 18 NO 1020,2 14
28.03.2020 10:00:00 9,3 0,1 14 8 - - ONO 1020,6 15
28.03.2020 09:00:00 7,8 1,2 14 8 22 12 NO 1020,6 13
28.03.2020 08:00:00 4,7 1,1 4 2 7 4 N 1020,8 11
28.03.2020 07:00:00 1,1 -0,6 4 2 - - N 1021,6 8
28.03.2020 06:00:00 0,9 -0,9 5 3 7 4 - 1021,2 9
28.03.2020 05:00:00 -0,1 -1,3 4 2 7 4 N 1021,3 6
28.03.2020 04:00:00 0,3 -1,2 4 2 - - - 1021,2 7
28.03.2020 03:00:00 2,3 -0,5 7 4 7 4 NO 1020,7 9
28.03.2020 02:00:00 1,2 -1,2 4 2 7 4 N 1021,2 11
28.03.2020 01:00:00 0,1 -1,4 4 2 - - N 1021,5 12
28.03.2020 00:00:00 -0,8 -2,1 4 2 7 4 N 1021,7 9
27.03.2020 23:00:00 0,2 -1,5 4 2 7 4 N 1021,3 10
27.03.2020 22:00:00 1,6 -1,0 4 2 - - N 1021,1 11
27.03.2020 21:00:00 3,5 -0,6 4 2 7 4 N 1020,2 12
27.03.2020 20:00:00 5,5 -0,4 4 2 14 8 N 1019,3 12
27.03.2020 19:00:00 7,5 -0,3 11 6 - - NO 1018,2 13
27.03.2020 18:00:00 10,2 -0,4 11 6 25 14 NO 1017,2 19
27.03.2020 17:00:00 11,0 -0,4 18 10 32 18 NO 1016,7 19
27.03.2020 16:00:00 10,7 -0,8 18 10 - - ONO 1017,0 19
27.03.2020 15:00:00 10,4 -1,1 14 8 29 16 ONO 1017,0 18
27.03.2020 14:00:00 9,0 -1,6 14 8 29 16 ONO 1017,3 20
27.03.2020 13:00:00 9,1 -1,9 14 8 - - O 1017,5 19
27.03.2020 12:00:00 9,5 -1,8 11 6 32 18 ONO 1017,2 15
27.03.2020 11:00:00 7,8 -3,2 18 10 29 16 ONO 1018,0 20
27.03.2020 10:00:00 5,7 -3,3 11 6 - - NO 1018,6 19
27.03.2020 09:00:00 3,7 -3,3 11 6 18 10 ONO 1019,2 19
27.03.2020 08:00:00 1,2 -2,9 4 2 11 6 N 1019,8 14
27.03.2020 07:00:00 -1,1 -4,1 4 2 - - N 1020,3 14
27.03.2020 06:00:00 -1,6 -4,1 4 2 7 4 N 1020,5 13
27.03.2020 05:00:00 -1,5 -4,5 4 2 7 4 N 1020,6 14
27.03.2020 04:00:00 -0,7 -4,2 4 2 - - N 1020,7 15
27.03.2020 03:00:00 -1,1 -4,4 4 2 7 4 N 1021,0 14
27.03.2020 02:00:00 -0,8 -4,6 4 2 7 4 N 1020,8 17
27.03.2020 01:00:00 0,8 -4,6 4 2 - - N 1020,8 18
27.03.2020 00:00:00 1,0 -4,7 7 4 14 8 O 1021,0 20
26.03.2020 23:00:00 1,6 -4,8 7 4 14 8 O 1021,0 20
26.03.2020 22:00:00 1,8 -4,9 7 4 - - O 1021,2 20
26.03.2020 21:00:00 2,3 -5,3 7 4 14 8 ONO 1021,6 20
26.03.2020 20:00:00 3,2 -5,9 7 4 14 8 O 1021,2 20
26.03.2020 19:00:00 4,3 -6,8 7 4 - - N 1020,6 20
26.03.2020 18:00:00 6,0 -7,4 14 8 29 16 O 1019,8 20
26.03.2020 17:00:00 6,7 -7,8 14 8 29 16 O 1019,5 20
26.03.2020 16:00:00 6,4 -8,1 14 8 - - O 1019,7 20
26.03.2020 15:00:00 6,8 -8,6 14 8 32 18 O 1019,5 20
26.03.2020 14:00:00 6,4 -9,1 14 8 32 18 ONO 1019,7 20
26.03.2020 13:00:00 5,9 -9,3 14 8 - - O 1020,1 20
26.03.2020 12:00:00 4,4 -9,5 18 10 43 23 O 1020,2 20
26.03.2020 11:00:00 3,6 -9,8 22 12 43 23 O 1020,7 20
26.03.2020 10:00:00 2,4 -9,3 18 10 - - O 1021,2 20
26.03.2020 09:00:00 0,7 -9,4 14 8 32 18 O 1021,5 20
26.03.2020 08:00:00 -0,8 -10,5 14 8 29 16 ONO 1021,8 20
26.03.2020 07:00:00 -2,2 -10,7 11 6 - - NO 1022,1 20
26.03.2020 06:00:00 -2,0 -10,9 11 6 22 12 ONO 1021,7 20
26.03.2020 05:00:00 -1,6 -11,0 11 6 22 12 ONO 1022,0 20
26.03.2020 04:00:00 -2,2 -10,9 7 4 - - ONO 1022,3 20
26.03.2020 03:00:00 -1,7 -10,7 4 2 11 6 N 1022,7 20
26.03.2020 02:00:00 -1,0 -11,2 7 4 14 8 O 1022,8 20
26.03.2020 01:00:00 -0,6 -11,0 7 4 - - O 1023,2 20
26.03.2020 00:00:00 0,0 -10,9 11 6 22 12 O 1023,6 20
25.03.2020 23:00:00 0,5 -11,2 11 6 22 12 O 1023,8 20
25.03.2020 22:00:00 1,2 -12,1 11 6 - - O 1023,7 20
25.03.2020 21:00:00 1,4 -13,0 11 6 18 10 O 1023,6 20
25.03.2020 20:00:00 2,0 -12,6 7 4 18 10 O 1023,2 20
25.03.2020 19:00:00 4,7 -13,7 11 6 - - ONO 1022,2 20
25.03.2020 18:00:00 6,7 -15,0 18 10 32 18 ONO 1022,1 20
25.03.2020 17:00:00 7,5 -14,5 18 10 36 19 ONO 1022,1 19
25.03.2020 16:00:00 7,6 -13,7 22 12 - - ONO 1022,3 20
25.03.2020 15:00:00 7,2 -13,0 18 10 40 21 O 1023,2 20
25.03.2020 14:00:00 7,2 -15,1 18 10 32 18 O 1023,3 19
25.03.2020 13:00:00 7,3 -14,6 18 10 - - O 1024,4 20
25.03.2020 12:00:00 6,7 -14,8 14 8 29 16 O 1025,0 20
25.03.2020 11:00:00 4,6 -14,0 14 8 25 14 O 1026,0 20
25.03.2020 10:00:00 3,9 -13,1 14 8 - - ZO 1026,5 20
25.03.2020 09:00:00 1,3 -11,9 18 10 32 18 ZO 1027,2 20
25.03.2020 08:00:00 -0,7 -11,1 4 2 18 10 N 1028,0 20
25.03.2020 07:00:00 -3,8 -12,1 11 6 - - ZO 1029,2 20
25.03.2020 06:00:00 -4,1 -12,9 7 4 14 8 OZO 1029,0 20
25.03.2020 05:00:00 -2,8 -13,7 7 4 18 10 OZO 1028,9 20
25.03.2020 04:00:00 -2,0 -14,3 4 2 - - N 1028,9 20
25.03.2020 03:00:00 -1,5 -14,2 7 4 14 8 ZO 1029,0 20
25.03.2020 02:00:00 -1,5 -13,8 11 6 14 8 ZO 1029,4 20
25.03.2020 01:00:00 -1,3 -13,4 11 6 - - ZO 1029,5 20
25.03.2020 00:00:00 -1,4 -12,6 11 6 18 10 OZO 1030,2 20
24.03.2020 23:00:00 -2,3 -12,5 4 2 11 6 N 1030,9 20
24.03.2020 22:00:00 -2,6 -12,3 7 4 - - N 1031,0 20
24.03.2020 21:00:00 -1,4 -12,2 7 4 14 8 O 1030,7 20
24.03.2020 20:00:00 -0,6 -11,8 4 2 14 8 N 1030,5 20
24.03.2020 19:00:00 1,9 -11,8 11 6 - - OZO 1029,7 20
24.03.2020 18:00:00 5,0 -12,4 18 10 25 14 OZO 1028,4 20
24.03.2020 17:00:00 6,1 -13,0 14 8 29 16 ZO 1028,2 20
24.03.2020 16:00:00 6,8 -13,3 14 8 - - ZO 1028,5 20
24.03.2020 15:00:00 6,8 -13,8 18 10 40 21 ZO 1029,0 20
24.03.2020 14:00:00 6,7 -14,5 22 12 40 21 OZO 1029,5 20
24.03.2020 13:00:00 5,7 -15,2 22 12 - - ZO 1030,5 20
24.03.2020 12:00:00 4,5 -14,5 22 12 40 21 ZZO 1031,0 20
24.03.2020 11:00:00 3,2 -14,8 18 10 36 19 ZZO 1031,4 18
24.03.2020 10:00:00 2,1 -13,9 18 10 - - ZO 1031,9 20
24.03.2020 09:00:00 1,4 -12,2 14 8 29 16 ZO 1032,0 20
24.03.2020 08:00:00 -0,5 -12,2 14 8 22 12 ZZO 1032,0 20
24.03.2020 07:00:00 -1,6 -12,6 7 4 - - ZZO 1032,5 20
24.03.2020 06:00:00 -2,1 -12,8 7 4 14 8 ZO 1032,5 20
24.03.2020 05:00:00 -1,4 -12,6 4 2 22 12 N 1032,5 20
24.03.2020 04:00:00 -0,9 -12,7 7 4 - - ZZO 1032,4 20
24.03.2020 03:00:00 -0,4 -12,8 14 8 25 14 ZZO 1031,7 20
24.03.2020 02:00:00 0,0 -12,6 14 8 29 16 ZZO 1032,0 20
24.03.2020 01:00:00 -0,1 -12,6 11 6 - - ZZO 1032,0 20
24.03.2020 00:00:00 0,4 -12,4 18 10 36 19 ZO 1032,2 20
23.03.2020 23:00:00 0,4 -12,5 18 10 32 18 ZO 1032,2 20
23.03.2020 22:00:00 0,6 -12,5 22 12 - - ZO 1032,0 20
23.03.2020 21:00:00 0,8 -12,8 18 10 29 16 ZO 1032,2 20
23.03.2020 20:00:00 -0,1 -12,6 14 8 22 12 OZO 1032,7 20
23.03.2020 19:00:00 2,0 -12,6 14 8 - - ZO 1031,7 20
23.03.2020 18:00:00 4,4 -12,7 22 12 40 21 OZO 1030,9 20
23.03.2020 17:00:00 5,6 -13,6 25 14 40 21 ZO 1030,4 20
23.03.2020 16:00:00 6,2 -13,5 22 12 - - ZO 1030,4 20
23.03.2020 15:00:00 6,3 -13,7 25 14 50 27 ZO 1030,5 20
23.03.2020 14:00:00 5,7 -14,4 29 16 50 27 ZO 1030,9 20
23.03.2020 13:00:00 4,8 -12,5 22 12 - - OZO 1031,5 20
23.03.2020 12:00:00 4,1 -13,7 29 16 47 25 ZO 1031,4 20
23.03.2020 11:00:00 2,8 -12,8 25 14 47 25 ZO 1031,7 20
23.03.2020 10:00:00 0,8 -12,9 25 14 - - ZO 1032,0 20
23.03.2020 09:00:00 -0,9 -12,1 29 16 50 27 ZO 1032,5 20
23.03.2020 08:00:00 -2,4 -12,2 32 18 47 25 ZO 1032,4 20
23.03.2020 07:00:00 -3,5 -10,4 22 12 - - ZO 1032,5 20
23.03.2020 06:00:00 -3,4 -10,5 22 12 40 21 ZO 1032,4 20
23.03.2020 05:00:00 -2,8 -10,7 22 12 43 23 ZO 1032,0 20
23.03.2020 04:00:00 -2,5 -10,5 22 12 - - ZO 1031,7 20
23.03.2020 03:00:00 -2,0 -9,7 22 12 47 25 ZO 1032,0 20
23.03.2020 02:00:00 -1,2 -9,5 29 16 47 25 ZO 1031,9 20
23.03.2020 01:00:00 -1,0 -9,0 29 16 - - ZO 1031,7 20
23.03.2020 00:00:00 -0,5 -8,6 29 16 47 25 OZO 1031,7 20
22.03.2020 23:00:00 0,0 -8,0 25 14 40 21 OZO 1031,5 20
22.03.2020 22:00:00 0,2 -7,1 18 10 - - OZO 1031,2 20
22.03.2020 21:00:00 0,6 -6,7 18 10 32 18 OZO 1030,7 20

tt = temperatuur
td = dauwpunt
ff = windsnelheid
fx = windstoten
dd = windrichting
ppp = luchtdruk
vv = zicht

Weerstations in de omgeving